This is the latest recevied weather packets stored in our database for station/object W5ZYX. If no packets are shown the sender has not sent any weather packets the latest 1 day(s).
| Time | Temp. | Humidity | Pressure | Rain* | Wind** | Luminosity | Snow |
|---|---|---|---|---|---|---|---|
| 1836274721 | 22.22° C | 81% | 1016.4 hPa | 0 mm | 0 m/s | - | - |
| 1836274561 | 22.22° C | 80% | 1016.5 hPa | 0 mm | 0 m/s | - | - |
| 1836274410 | 22.22° C | 81% | 1016.4 hPa | 0 mm | 0 m/s | - | - |
| 1836274264 | 22.22° C | 80% | 1016.4 hPa | 0 mm | 0 m/s | - | - |
| 1836274111 | 22.22° C | 81% | 1016.4 hPa | 0 mm | 0 m/s | - | - |
| 1778033754 | 25° C | 84% | 1007.7 hPa | 0 mm | 1.34 m/s, 164° | - | - |
| 1778033436 | 25° C | 84% | 1007.8 hPa | 0 mm | 1.34 m/s, 173° | - | - |
| 1778033139 | 25° C | 83% | 1007.8 hPa | 0 mm | 0.89 m/s, 0° | - | - |
| 1778032847 | 25.56° C | 83% | 1007.8 hPa | 0 mm | 0.45 m/s, 175° | - | - |
| 1778032539 | 25.56° C | 83% | 1007.7 hPa | 0 mm | 0.45 m/s, 0° | - | - |
| 1778032237 | 25.56° C | 83% | 1007.6 hPa | 0 mm | 0.89 m/s, 177° | - | - |
| 1778031947 | 25.56° C | 82% | 1007.6 hPa | 0 mm | 0.45 m/s, 172° | - | - |
| 1778031637 | 25.56° C | 82% | 1007.5 hPa | 0 mm | 0 m/s | - | - |
| 1778031336 | 25.56° C | 82% | 1007.5 hPa | 0 mm | 0.89 m/s, 215° | - | - |
| 1778031048 | 26.11° C | 81% | 1007.4 hPa | 0 mm | 0.45 m/s, 191° | - | - |
| 1778030739 | 26.11° C | 81% | 1007.2 hPa | 0 mm | 1.34 m/s, 180° | - | - |
| 1778030438 | 26.11° C | 81% | 1007 hPa | 0 mm | 1.79 m/s, 148° | - | - |
| 1778030155 | 26.11° C | 81% | 1006.9 hPa | 0 mm | 1.79 m/s, 153° | - | - |
| 1778029838 | 26.11° C | 80% | 1006.8 hPa | 0 mm | 1.34 m/s, 159° | - | - |
| 1778029536 | 26.11° C | 80% | 1006.8 hPa | 0 mm | 1.34 m/s, 175° | - | - |
| 1778029248 | 26.67° C | 80% | 1006.8 hPa | 0 mm | 2.68 m/s, 161° | - | - |
| 1778028939 | 26.67° C | 80% | 1006.8 hPa | 0 mm | 2.24 m/s, 178° | - | - |
| 1778028637 | 26.67° C | 80% | 1006.7 hPa | 0 mm | 2.24 m/s, 192° | - | - |
| 1778028347 | 26.67° C | 79% | 1006.7 hPa | 0 mm | 1.34 m/s, 160° | - | - |
| 1778028047 | 26.67° C | 79% | 1006.7 hPa | 0 mm | 1.79 m/s, 174° | - | - |
* Rain latest hour (hover to see other rain measurements)
** Current wind speed in m/s (hover to see current wind gust speed)